QB50P2

Last updated on Fri Aug 29 2025 00:03:48 GMT+0000 (Coordinated Universal Time)

1 40032U 14033Y 25239.89534605 .00009712 00000+0 61301-3 0 9993 2 40032 98.0504 215.1758 0010414 93.1920 267.0499 15.09270441608330
UTC large
Height (km)
Speed (km/s)
/
Latitude / Longitude
Inclination (degrees)
Orbital Period (minutes)
Azimuth
Elevation
Range (km)
Doppler Factor

Next 0 passes for location: London (51.5072 / 0.1276)

Sorry there are no passes over London.